Regional Weather Roundup
Issued by NWS State College, PA

Home | Current Version | Previous Version | Text Only | Print | Product List | Glossary Off
Versions: 1 2 3 4 5 6 7 8 9 10 11 12 13 14 15 16 17 18 19 20 21 22 23 24 25 26 27 28 29 30 31 32 33 34 35 36 37 38 39 40 41 42 43 44 45 46 47 48 49 50

000
ASUS41 KCTP 291603
RWRCTP

REGIONAL WEATHER ROUNDUP
NATIONAL WEATHER SERVICE STATE COLLEGE PA
1200 PM EDT MON JUN 29 2015

Note: "fair" indicates few or no clouds below 12,000 feet with no
significant weather and/or obstructions to visibility.

* = STATION THAT DOES NOT REPORT PRECIPITATION /E.G. RAIN...SNOW...ETC/
    THUNDER OR FOG.

PAZ002>004-007>009-013>016-020>023-029>032-291700-
WESTERN PENNSYLVANIA

CITY           SKY/WX    TMP DP  RH WIND       PRES   REMARKS
ERIE           PTSUNNY   66  56  70 W8        29.92S
MEADVILLE      MOSUNNY   71  55  56 W8        29.95F
FRANKLIN*      MOSUNNY   72  55  56 SW7       29.97S
NEW CASTLE     FAIR      73  60  63 CALM      29.96S
BEAVER COUNTY  SUNNY     72  57  60 S5        29.96S
BUTLER*        MOSUNNY   73  57  56 SW8       29.97F
PITTSBURGH INT PTSUNNY   74  55  51 VRB6      29.96S
PITTSBURGH     MOSUNNY   72  53  51 S6        29.96F
INDIANA*       SUNNY     70  59  68 W8        30.01S
LATROBE        MOSUNNY   72  59  64 SW8       29.99S
WASHINGTON CO* NOT AVBL
$$

PAZ004>006-010>012-017>019-024>028-033>037-041-042-045-046-049>053-291700-
CENTRAL PENNSYLVANIA

CITY           SKY/WX    TMP DP  RH WIND       PRES   REMARKS
BRADFORD       PTSUNNY   67  54  63 NW12      29.96S
DUBOIS         MOSUNNY   71  57  61 W8        29.96S
CLEARFIELD     PTSUNNY   70  57  63 SW7       29.96F
JOHNSTOWN      MOSUNNY   68  51  54 VRB6      30.00S
ALTOONA        PTSUNNY   73  53  49 NW9       29.98F
STATE COLLEGE  MOSUNNY   72  57  60 W9G17     29.96F
WILLIAMSPORT   MOSUNNY   73  55  53 SW8       29.91S
SELINSGROVE    MOSUNNY   74  57  55 VRB6      29.94F
FT INDIANTOWN  PTSUNNY   72  56  58 VRB5      29.94F
CAPITAL CITY   MOSUNNY   74  54  49 W7        29.94F
HARRISBURG     MOSUNNY   75  56  51 NW9       29.93F
YORK           SUNNY     74  56  53 W8        29.95S
$$

PAZ038>040-043-044-047-048-054-055-060>062-067>071-291700-
EASTERN PENNSYLVANIA

CITY           SKY/WX    TMP DP  RH WIND       PRES   REMARKS
SCRANTON       CLOUDY    66  55  67 VRB3      29.92S
MOUNT POCONO   CLOUDY    63  53  70 NW10      29.94S
ALLENTOWN      CLOUDY    70  56  61 NW9       29.93S
QUAKERTOWN*    CLOUDY    68  57  68 W6        29.95R
READING        CLOUDY    72  55  55 W8        29.93S
LANCASTER      MOSUNNY   71  56  58 W15       29.95S
COATESVILLE    PTSUNNY   68  57  68 NW6       29.97S
POTTSTOWN      CLOUDY    69  56  62 W6        29.95S
BLUE BELL      MOSUNNY   73  57  56 W7        29.93S
DOYLESTOWN     MOSUNNY   72  56  57 NW9       29.93R
WILLOW GROVE   NOT AVBL
NORTH PHILA    MOSUNNY   76  54  46 W10       29.94S
PHILADELPHIA   MOSUNNY   74  53  48 W10G17    29.94S
$$


USA.gov is the U.S. government's official web portal to all federal, state and local government web resources and services.